User: anonymous   Login
Location: Biltmore Gardens
(41.6070°N, 83.4666°W)
Time: 22:53:23
(UTC+00:00)
Language:

Lacrosse 5 - Orbit

View from above orbital plane
View from above orbital plane
View from above satellite
View from above satellite

Ground track
Ground track

The orbit data is extracted from the following two-line orbital elements,

1 28646U 05016A   20273.17386893 0.00000000  00000-0  00000-0 0    00
2 28646  57.0148 328.8176 0004394  75.5682 284.4318 14.52053047    02
Epoch (UTC): 29 September 2020 04:10:22
Eccentricity: 0.0004394
inclination: 57.0148°
perigee height: 716 km
apogee height: 722 km
right ascension of ascending node: 328.8176°
argument of perigee: 75.5682°
revolutions per day: 14.52053047
mean anomaly at epoch: 284.4318°
orbit number at epoch: 0

The dashed part of the orbit path shows where the satellite is in the earth's shadow,  

DLR